TimeEDT,TemperatureF,Dew PointF,Humidity,Sea Level PressureIn,VisibilityMPH,Wind Direction,Wind SpeedMPH,Gust SpeedMPH,PrecipitationIn,Events,Conditions,WindDirDegrees,DateUTC
12:53 AM,30.0,21.9,72,29.94,10.0,NE,12.7,-,N/A,,Overcast,50,2013-03-11 04:53:00
1:53 AM,28.9,24.1,82,29.91,5.0,NE,12.7,20.7,0.00,Snow,Light Snow,50,2013-03-11 05:53:00
2:04 AM,28.4,24.8,86,29.86,1.8,ENE,12.7,-,0.00,Snow,Light Snow,60,2013-03-11 06:04:00
2:16 AM,28.4,26.6,93,29.85,0.5,NE,17.3,20.7,N/A,Fog-Snow,Snow,50,2013-03-11 06:16:00
2:53 AM,28.0,26.1,92,29.86,0.5,ENE,12.7,-,0.02,Fog-Snow,Snow,60,2013-03-11 06:53:00
3:53 AM,28.0,26.1,92,29.84,0.5,NE,12.7,-,0.04,Fog-Snow,Snow,50,2013-03-11 07:53:00
4:53 AM,27.0,25.0,92,29.81,0.8,NE,15.0,26.5,0.02,Snow,Light Snow,50,2013-03-11 08:53:00
5:53 AM,26.6,24.8,93,29.75,0.8,NE,15.0,-,N/A,Snow,Light Snow,40,2013-03-11 09:53:00
6:09 AM,26.6,24.8,93,29.73,0.8,NE,16.1,26.5,0.00,Snow,Light Snow,40,2013-03-11 10:09:00
6:16 AM,26.6,24.8,93,29.74,1.0,NE,16.1,28.8,0.00,Snow,Light Snow,50,2013-03-11 10:16:00
6:29 AM,26.6,24.8,93,29.73,1.2,NE,16.1,-,0.00,Snow,Light Snow,40,2013-03-11 10:29:00
6:53 AM,27.0,24.1,89,29.78,1.8,NE,13.8,25.3,0.00,Snow,Light Snow,40,2013-03-11 10:53:00
7:01 AM,26.6,24.8,93,29.73,2.5,NE,18.4,24.2,0.00,Snow,Light Snow,40,2013-03-11 11:01:00
7:30 AM,26.6,23.0,86,29.73,1.8,NE,18.4,28.8,N/A,Snow,Light Snow,40,2013-03-11 11:30:00
7:53 AM,25.0,21.9,88,29.78,2.5,NNE,18.4,27.6,0.00,Snow,Light Snow,30,2013-03-11 11:53:00
8:05 AM,24.8,21.2,86,29.73,2.5,NNE,17.3,-,0.00,Snow,Light Snow,30,2013-03-11 12:05:00
8:19 AM,24.8,21.2,86,29.73,3.0,NE,19.6,25.3,0.00,Snow,Light Snow,40,2013-03-11 12:19:00
8:39 AM,24.8,21.2,86,29.73,2.0,NNE,17.3,25.3,0.00,Snow,Light Snow,30,2013-03-11 12:39:00
8:41 AM,24.8,21.2,86,29.73,1.8,NNE,21.9,26.5,0.00,Snow,Light Snow,30,2013-03-11 12:41:00
8:44 AM,24.8,21.2,86,29.73,2.0,NNE,18.4,26.5,0.00,Snow,Light Snow,30,2013-03-11 12:44:00
8:53 AM,24.1,21.0,88,29.78,4.0,NNE,19.6,26.5,0.00,Snow,Light Snow,30,2013-03-11 12:53:00
9:53 AM,23.0,19.9,88,29.77,5.0,NNE,16.1,24.2,0.00,Snow,Light Snow,30,2013-03-11 13:53:00
10:16 AM,23.0,19.4,86,29.71,4.0,NNE,15.0,25.3,0.00,Snow,Light Snow,30,2013-03-11 14:16:00
10:29 AM,23.0,19.4,86,29.71,2.0,NNE,15.0,24.2,0.00,Snow,Light Snow,30,2013-03-11 14:29:00
10:36 AM,23.0,19.4,86,29.71,1.2,NNE,16.1,-,0.00,Snow,Light Snow,30,2013-03-11 14:36:00
10:41 AM,23.0,19.4,86,29.71,0.8,NNE,13.8,-,0.01,Snow,Light Snow,30,2013-03-11 14:41:00
10:50 AM,23.0,19.4,86,29.70,0.8,NE,16.1,23.0,0.01,Snow,Light Snow,40,2013-03-11 14:50:00
10:53 AM,23.0,19.9,88,29.75,0.5,NNE,13.8,23.0,0.01,Fog-Snow,Snow,30,2013-03-11 14:53:00
11:40 AM,23.0,19.4,86,29.69,0.8,NNE,16.1,20.7,0.01,Snow,Light Snow,30,2013-03-11 15:40:00
11:53 AM,24.1,19.9,84,29.73,0.8,NNE,12.7,20.7,0.01,Snow,Light Snow,30,2013-03-11 15:53:00
12:27 PM,24.8,21.2,86,29.67,0.5,NNE,12.7,-,0.00,Fog-Snow,Snow,20,2013-03-11 16:27:00
12:53 PM,24.1,21.0,88,29.70,0.5,NNE,16.1,-,0.00,Fog-Snow,Snow,20,2013-03-11 16:53:00
1:23 PM,24.8,19.4,80,29.65,0.8,NNE,17.3,21.9,0.01,Snow,Light Snow,20,2013-03-11 17:23:00
1:44 PM,24.8,19.4,80,29.65,1.0,North,12.7,-,0.01,Snow,Light Snow,10,2013-03-11 17:44:00
1:53 PM,24.1,19.9,84,29.70,1.2,NNE,16.1,21.9,0.01,Snow,Light Snow,20,2013-03-11 17:53:00
2:42 PM,24.8,19.4,80,29.63,0.8,NNE,12.7,23.0,0.00,Snow,Light Snow,20,2013-03-11 18:42:00
2:53 PM,24.1,19.9,84,29.68,0.5,NNE,15.0,20.7,0.00,Fog-Snow,Snow,30,2013-03-11 18:53:00
3:04 PM,24.8,19.4,80,29.63,0.8,North,12.7,-,0.00,Snow,Light Snow,10,2013-03-11 19:04:00
3:12 PM,24.8,19.4,80,29.63,1.0,NNE,15.0,20.7,0.00,Snow,Light Snow,20,2013-03-11 19:12:00
3:43 PM,24.8,19.4,80,29.63,0.8,NNE,15.0,23.0,0.00,Snow,Light Snow,20,2013-03-11 19:43:00
3:53 PM,24.1,19.0,81,29.67,0.5,NNE,18.4,-,0.00,Snow,Snow,20,2013-03-11 19:53:00
4:02 PM,24.8,19.4,80,29.62,0.5,North,13.8,-,0.01,Fog-Snow,Snow,10,2013-03-11 20:02:00
4:20 PM,24.8,19.4,80,29.62,0.8,NNE,15.0,21.9,0.01,Snow,Light Snow,20,2013-03-11 20:20:00
4:28 PM,24.8,19.4,80,29.62,1.2,North,15.0,21.9,0.01,Snow,Light Snow,10,2013-03-11 20:28:00
4:35 PM,24.8,19.4,80,29.62,0.8,North,12.7,21.9,0.01,Snow,Light Snow,10,2013-03-11 20:35:00
4:53 PM,24.1,19.9,84,29.66,1.0,NNE,13.8,21.9,0.01,Snow,Light Snow,20,2013-03-11 20:53:00
5:44 PM,23.0,19.4,86,29.61,2.5,North,16.1,21.9,0.00,Snow,Light Snow,360,2013-03-11 21:44:00
5:53 PM,23.0,19.0,85,29.66,2.5,North,17.3,-,0.00,Snow,Light Snow,10,2013-03-11 21:53:00
6:05 PM,23.0,19.4,86,29.61,2.5,North,15.0,23.0,0.00,Snow,Light Snow,360,2013-03-11 22:05:00
6:12 PM,23.0,19.4,86,29.61,2.5,North,15.0,-,0.00,Snow,Light Snow,10,2013-03-11 22:12:00
6:15 PM,23.0,19.4,86,29.61,3.0,North,13.8,-,0.00,Snow,Light Snow,10,2013-03-11 22:15:00
6:28 PM,23.0,19.4,86,29.61,3.0,North,13.8,-,0.00,Snow,Light Snow,10,2013-03-11 22:28:00
6:37 PM,23.0,19.4,86,29.61,2.0,North,12.7,-,0.00,Snow,Light Snow,360,2013-03-11 22:37:00
6:45 PM,21.2,19.4,93,29.61,1.8,North,16.1,24.2,0.00,Snow,Light Snow,360,2013-03-11 22:45:00
6:53 PM,21.2,19.4,93,29.61,1.5,North,12.7,-,N/A,Snow,Light Snow,360,2013-03-11 22:53:00
7:18 PM,21.2,17.6,86,29.61,1.5,North,15.0,-,0.00,Snow,Light Snow,10,2013-03-11 23:18:00
7:47 PM,21.2,17.6,86,29.61,2.0,North,11.5,21.9,0.00,Snow,Light Snow,360,2013-03-11 23:47:00
7:53 PM,21.9,18.0,85,29.67,2.5,North,10.4,-,0.00,Snow,Light Snow,360,2013-03-11 23:53:00
7:57 PM,21.2,17.6,86,29.61,3.0,North,11.5,-,0.00,Snow,Light Snow,360,2013-03-11 23:57:00
8:29 PM,21.2,17.6,86,29.61,6.0,North,11.5,-,0.00,Snow,Light Snow,360,2013-03-12 00:29:00
8:53 PM,21.0,17.1,85,29.67,9.0,North,8.1,18.4,0.00,Snow,Light Snow,360,2013-03-12 00:53:00
9:53 PM,21.0,17.1,85,29.69,5.0,North,9.2,-,0.00,Snow,Light Snow,10,2013-03-12 01:53:00
10:53 PM,21.0,16.0,81,29.69,9.0,North,5.8,-,0.00,Snow,Light Snow,10,2013-03-12 02:53:00
11:53 PM,19.9,16.0,85,29.68,2.5,North,9.2,-,0.01,Snow,Light Snow,350,2013-03-12 03:53:00